Regional Weather Roundup
Issued by NWS

Home | Current Version | Previous Version | Text Only | Print | Product List | Glossary Off
Versions: 1 2 3 4 5 6 7 8 9 10 11 12 13 14 15 16 17 18 19 20 21 22 23 24 25 26 27 28 29 30 31 32 33 34 35 36 37 38 39 40 41 42 43 44 45 46 47 48 49 50

000
ASUS45 KABQ 280001
RWRNM
NEW MEXICO REGIONAL WEATHER ROUNDUP
NATIONAL WEATHER SERVICE ALBUQUERQUE NM
600 PM MDT FRI MAY 27 2016

NOTE: "FAIR" MEANS FEW OR NO CLOUDS BELOW 12,000 FEET AGL WITH NO
       SIGNIFICANT WEATHER OR OBSTRUCTIONS TO VISION.

      THIS PRODUCT IS RELEASED AS TWO VERSIONS.  ONE VERSION NEAR
      THE TOP OF THE HOUR CONTAINING PRELIMINARY DATA FROM ALBUQUERQUE
      AND OTHER STATIONS.  A FINAL VERSION WITH ADDITIONAL DATA IS
      ISSUED ABOUT 10 MINUTES AFTER THE HOUR.

NMZ501-503-504-510>518-280100-
NORTHWEST PLATEAU/NORTHCENTRAL MOUNTAINS

CITY           SKY/WX    TMP DP  RH WIND       PRES   REMARKS
FARMINGTON     FAIR      71  17  12 W21G32    29.87R
6HR MIN TEMP:  67; 6HR MAX TEMP:  73;

SANTA FE       FAIR      70  19  14 W20G29    29.88R
6HR MIN TEMP:  62; 6HR MAX TEMP:  74;

TAOS           PTSUNNY   52  36  54 N12       29.99S

$$
NMZ402-403-502-505>509-280100-
WESTCENTRAL MOUNTAINS/SOUTHWEST MOUNTAINS

CITY           SKY/WX    TMP DP  RH WIND       PRES   REMARKS
GALLUP         FAIR      69  18  14 W17G28    29.96S
6HR MIN TEMP:  63; 6HR MAX TEMP:  71;

GRANTS         PTSUNNY   68  17  14 NW17G30   29.97S
SILVER CITY      N/A     73  12   9 W15G28    29.95S

$$
NMZ407-409-411-412-280100-
SOUTHERN DESERTS

CITY           SKY/WX    TMP DP  RH WIND       PRES   REMARKS
LORDSBURG      FAIR      79  19  11 W10G18    29.88F
DEMING         FAIR      80  15   8 W21G26    29.87F
6HR MIN TEMP:  74; 6HR MAX TEMP:  82;

HOLLOMAN AFB   FAIR      82  18   9 SW9       29.82F
ALAMOGORDO     FAIR      81  19  10 SW7       29.84F
T OR C         FAIR      79  19  10 VRB3      29.83S
6HR MIN TEMP:  72; 6HR MAX TEMP:  82;


$$
NMZ519>523-280100-
CENTRAL VALLEYS/CENTRAL HIGHLANDS

CITY           SKY/WX    TMP DP  RH WIND       PRES   REMARKS
ALBUQUERQUE    PTSUNNY   73  21  14 W17       29.86S
6HR MIN TEMP:  67; 6HR MAX TEMP:  77;

DOUBLE EAGLE   PTSUNNY   72  25  17 W22       29.90R
CLINES CORNERS FAIR      67  18  15 W18       29.91F
6HR MIN TEMP:  63; 6HR MAX TEMP:  69;

BELEN          FAIR      76  20  12 W16       29.86S
6HR MIN TEMP:  71; 6HR MAX TEMP:  79;

SOCORRO        NOT AVBL

$$
NMZ524>526-539-540-280100-
SOUTHCENTRAL MOUNTAINS

CITY           SKY/WX    TMP DP  RH WIND       PRES   REMARKS
RUIDOSO        NOT AVBL

$$
NMZ527>531-280100-
NORTHEAST HIGHLANDS/NORTHEAST PLAINS

CITY           SKY/WX    TMP DP  RH WIND       PRES   REMARKS
LAS VEGAS      CLOUDY    63  31  30 E9        29.89R
6HR MIN TEMP:  60; 6HR MAX TEMP:  70;

RATON          FAIR      62  35  36 NE15      29.88R
6HR MIN TEMP:  58; 6HR MAX TEMP:  69;

CLAYTON        FAIR      64  37  36 N24G32    29.83R
6HR MIN TEMP:  61; 6HR MAX TEMP:  73; 6HR PCP: TRACE;


$$
NMZ532>537-280100-
EASTCENTRAL PLAINS

CITY           SKY/WX    TMP DP  RH WIND       PRES   REMARKS
TUCUMCARI      FAIR      77  29  17 S7        29.75S
6HR MIN TEMP:  69; 6HR MAX TEMP:  80;

CANNON AFB     NOT AVBL
CLOVIS AIRPORT FAIR      77  30  18 NW9       29.79F

$$
NMZ028-029-538-280100-
SOUTHEAST PLAINS

CITY           SKY/WX    TMP DP  RH WIND       PRES   REMARKS
ROSWELL        FAIR      83  21  10 CALM      29.76S
6HR MIN TEMP:  80; 6HR MAX TEMP:  87;

ARTESIA        FAIR      86  21   9 NW8       29.76S
CARLSBAD       FAIR      86  16   7 W14G26    29.75R
6HR MIN TEMP:  82; 6HR MAX TEMP:  89;

HOBBS          SUNNY     82  18   9 SW15G21   29.80S


$$




USA.gov is the U.S. government's official web portal to all federal, state and local government web resources and services.